Preview of NWS' New Version of Forecast
This preview is not operational and should not be used for support decisions.

Regional Weather Roundup (RWR)

Issued by National Weather Service (NWS)

                            
000
ASUS43 KTOP 170808
RWRKS 

WEATHER ROUNDUP FOR KANSAS
NATIONAL WEATHER SERVICE GOODLAND KS
200 AM CST SUN FEB 17 2019

NOTE:  "FAIR" INDICATES FEW OR NO CLOUDS BELOW 12,000 FEET WITH NO
SIGNIFICANT WEATHER AND/OR OBSTRUCTIONS TO VISIBILITY.

KSZ001>006-013>018-027>032-041>047-170900-
NORTHWEST KANSAS
  
CITY           SKY/WX    TMP DP  RH WIND       PRES   REMARKS
GOODLAND       FAIR      19  16  88 W13       29.73R WCI   6          
HAYS           CLOUDY    18  16  92 NW3       29.77R                  
HILL CITY      CLOUDY    18  16  92 NW5       29.77R                  
RUSSELL        LGT SNOW  17  17 100 NW6       29.76R FOG              
$$

KSZ061>065-074>080-084>089-170900-
SOUTHWEST KANSAS
  
CITY           SKY/WX    TMP DP  RH WIND       PRES   REMARKS
DODGE CITY       N/A     20  16  84 W7        29.73R                  
ELKHART        FAIR      26  24  91 W10       29.76S WCI  17          
GARDEN CITY    FAIR      23  21  92 NW10      29.73R WCI  12          
GREAT BEND     FLURRIES  21  19  92 NW9       29.77R                  
LIBERAL        FAIR      20  17  88 W10       29.76R WCI   9          
PRATT          CLOUDY    25  22  91 NW12      29.77R WCI  14          
$$

KSZ066>073-081>083-090>101-170900-
SOUTHEAST KANSAS
  
CITY           SKY/WX    TMP DP  RH WIND       PRES   REMARKS
CHANUTE        CLOUDY    29  26  89 NW9       29.76R FOG              
COFFEYVILLE    CLOUDY    30  29  96 W7        29.78S                  
HUTCHINSON     CLOUDY    23  21  92 NW10      29.77R WCI  12          
MEDICINE LODGE   N/A     23  21  92 W3        29.78R                  
NEWTON         CLOUDY    23  21  92 NW14      29.76F WCI  11          
PARSONS        CLOUDY    30  29  96 NW3       29.77R FOG              
WICHITA INTL   CLOUDY    27  24  89 NW10      29.77S WCI  17          
WICHITA JABRA  CLOUDY    25  22  88 NW9       29.76S                  
WICHITA MCCONL CLOUDY    27  23  86 W8        29.76                   
WINFIELD       CLOUDY    27  23  85 W13       29.79R WCI  16          
$$

KSZ007>012-019>026-033>040-048>060-102>105-170900-
NORTHEAST KANSAS
  
CITY           SKY/WX    TMP DP  RH WIND       PRES   REMARKS
CONCORDIA      CLOUDY    16  14  92 NW7       29.78R                  
EMPORIA        CLOUDY    24  24 100 NW7       29.75S FOG              
LAWRENCE       CLOUDY    24  22  91 NW7       29.78R FOG              
MANHATTAN      CLOUDY    23  20  88 W3        29.79R                  
MARYSVILLE     LGT RAIN  19  19 100 NW7       29.77R                  
OLATHE IND     CLOUDY    24  23  96 W7        29.75R FOG              
OLATHE EXE     CLOUDY    24  24 100 W3        29.74R FOG              
SALINA         CLOUDY    21  20  96 N12       29.79R WCI   9          
TOPEKA BILLARD CLOUDY    24  21  88 NW3       29.78R                  
TOPEKA FORBES  CLOUDY    23  21  92 NW3       29.76R FOG              
$$